Date,TemperatureHighF,TemperatureAvgF,TemperatureLowF,DewpointHighF,DewpointAvgF,DewpointLowF,HumidityHigh,HumidityAvg,HumidityLow,PressureMaxIn,PressureMinIn,WindSpeedMaxMPH,WindSpeedAvgMPH,GustSpeedMaxMPH,PrecipitationSumIn
2013-4-1,82.8,66.7,48.4,54.5,50.4,46.6,97,62,30,29.89,29.73,3,1,0,0.00
2013-4-2,69.4,64.9,54.1,63.2,58.1,44.5,89,79,60,29.83,29.72,10,2,0,0.00
2013-4-3,54.9,48.4,43.7,49.4,45.7,42.3,96,91,70,29.99,29.76,8,2,0,1.14
2013-4-4,51.3,45.9,41.7,43.0,41.3,40.2,96,84,72,30.05,29.94,5,2,0,0.01
2013-4-5,71.1,54.5,37.4,50.4,44.5,35.8,95,72,45,30.08,29.84,4,1,0,0.00
2013-4-6,78.4,66.2,55.6,59.9,53.9,47.2,80,65,52,29.85,29.63,8,2,0,0.00
2013-4-7,73.8,67.6,62.2,63.4,60.5,57.2,86,78,69,29.74,29.56,4,2,0,0.00
2013-4-8,76.3,71.3,66.0,66.2,63.4,59.3,84,76,70,29.60,29.51,7,2,0,0.00
2013-4-9,81.7,74.0,68.7,68.0,65.7,63.1,86,76,62,29.58,29.50,6,2,0,0.00
2013-4-10,73.2,46.0,39.4,68.1,41.3,34.9,91,84,68,29.89,29.57,7,3,0,0.29
2013-4-11,65.7,51.5,39.2,40.8,35.6,30.4,80,56,37,29.88,29.71,5,1,0,0.00
2013-4-12,80.8,60.0,42.3,49.7,44.6,39.2,92,62,29,29.92,29.74,3,0,0,0.00
2013-4-13,80.2,67.8,54.5,53.1,49.5,45.1,78,54,34,29.92,29.69,4,1,0,0.00
2013-4-14,84.6,70.2,56.8,66.9,58.9,49.9,85,68,50,29.69,29.45,6,1,0,0.00
2013-4-15,89.1,77.8,68.9,69.4,67.2,65.3,94,72,50,29.69,29.53,6,2,0,0.00
2013-4-16,89.4,78.8,71.8,69.7,67.3,64.5,84,69,49,29.84,29.69,6,2,0,0.00
2013-4-17,86.5,78.3,72.5,73.4,69.5,67.6,98,76,56,29.83,29.56,6,3,0,0.00
2013-4-18,77.2,54.3,43.5,74.6,46.5,35.6,98,76,51,30.14,29.49,12,3,0,1.36
2013-4-19,66.6,50.6,36.5,38.5,32.7,27.0,90,56,25,30.26,30.09,7,1,0,0.00
2013-4-20,73.4,58.7,43.0,39.7,35.3,31.2,72,45,22,30.16,29.95,8,2,0,0.00
2013-4-21,74.3,61.9,50.4,54.0,47.9,38.6,77,61,47,30.16,30.00,3,1,0,0.00
2013-4-22,81.1,67.9,53.8,60.7,55.4,47.4,97,66,49,30.05,29.77,6,2,0,0.00
2013-4-23,69.3,54.7,41.0,64.9,50.6,39.0,98,86,71,30.16,29.72,8,3,0,0.03
2013-4-24,63.3,50.1,36.3,40.3,36.7,31.0,98,63,38,30.28,30.15,8,2,0,0.01
2013-4-25,76.5,63.6,51.6,47.8,42.3,35.9,59,47,31,30.29,30.07,4,1,0,0.00
2013-4-26,79.3,68.3,61.7,69.4,57.1,45.4,94,68,51,30.10,29.89,7,1,0,0.00
2013-4-27,77.4,68.3,58.1,70.5,61.6,56.7,98,81,54,30.06,29.90,5,2,0,0.00
2013-4-28,84.6,68.4,53.2,67.7,61.2,52.6,98,80,54,29.96,29.76,4,0,0,0.00
2013-4-29,88.2,75.1,60.6,69.0,62.8,58.1,98,69,38,29.82,29.70,4,1,0,0.00
2013-4-30,84.9,73.0,60.6,66.4,63.5,59.3,98,74,53,29.75,29.65,5,1,0,0.00